Miscellaneous Local Product
Issued by NWS Hastings, NE

Home | Current Version | Previous Version | Graphics & Text | Print | Product List | Glossary On
Versions: 1 2 3 4 5 6 7 8 9 10 11 12 13 14 15 16 17 18 19 20 21 22 23 24 25 26 27 28 29 30 31 32 33 34 35 36 37 38 39 40 41 42 43 44 45 46 47 48 49 50
828
AXUS43 KGID 280602
MISGRI

GID CWA HOURLY WEATHER ROUNDUP
NATIONAL WEATHER SERVICE HASTINGS NE
100 AM CDT THU JUL 28 2016

NOTE: "FAIR" INDICATES FEW OR NO CLOUDS BELOW 12,000 FEET WITH NO
SIGNIFICANT WEATHER AND/OR OBSTRUCTIONS TO VISIBILITY.

...SOUTH CENTRAL NEBRASKA...

CITY           SKY/WX    TMP DP  RH WIND       PRES   REMARKS
GRAND ISLAND   CLEAR     67  61  81 N6        30.07R
HASTINGS       CLEAR     70  66  87 CALM      30.06F
KEARNEY        CLEAR     68  10  10 N12       30.08F
ORD            PTCLDY    63  60  90 CALM      30.06F
YORK           CLEAR     68  64  88 N5        30.05R
AURORA         PTCLDY    68  65  90 N5        30.06R
LEXINGTON      CLEAR     67  62  82 NE9       30.08F
HOLDREGE       CLEAR     68  65  90 NE7       30.07F
HEBRON         CLEAR     74  66  77 NE3       30.02F

...NEBRASKA PANHANDLE...

CITY           SKY/WX    TMP DP  RH WIND       PRES   REMARKS
CHADRON        CLEAR     69  60  73 S12       30.12F
ALLIANCE       CLOUDY    64  59  83 E8        30.15F
SCOTTSBLUFF    CLOUDY    68  61  78 SE12      30.14F
SIDNEY         CLOUDY    68  60  75 N13       30.28R THUNDER

...WESTERN AND NORTH CENTRAL NEBRASKA...

CITY           SKY/WX    TMP DP  RH WIND       PRES   REMARKS
VALENTINE      CLOUDY    60  57  89 MISG      30.12F
AINSWORTH      CLEAR     60  58  93 W5        30.11S
ONEILL         PTCLDY    65  62  90 N8        30.07R
BROKEN BOW     CLEAR     64  60  87 VRB3      30.09F
IMPERIAL       CLEAR     70  65  84 NE9       30.14R
NORTH PLATTE   PTCLDY    66  60  81 NE9       30.11F
MCCOOK         CLOUDY    72  67  84 E5        30.08F

...EASTERN NEBRASKA...

CITY           SKY/WX    TMP DP  RH WIND       PRES   REMARKS
NORFOLK        MOCLDY    68  65  90 W6        30.04S
SO SIOUX CITY  CLOUDY    76  63  64 NE10      30.01R
TEKAMAH        LGT RAIN  73  66  78 N7        29.99S
COLUMBUS       CLOUDY    68  57  68 NW5       30.03F
ALBION         CLOUDY    66  61  83 N5        30.05S
OMAHA EPPLEY   CLOUDY    75  68  78 NE6       29.97F
OFFUTT AFB     CLOUDY    74  71  90 NW1       29.97S
MILLARD        CLOUDY    77  67  69 NW3       29.98F
LINCOLN        CLEAR     72  67  84 CALM      30.01S
NEBRASKA CITY  CLEAR     72  72 100 CALM      29.99S
BEATRICE       CLEAR     70  67  91 N5        30.00F
FALLS CITY     CLEAR     73  71  93 NW5       29.97S

...NORTHERN KANSAS...

CITY           SKY/WX    TMP DP  RH WIND       PRES   REMARKS
GOODLAND       CLOUDY    64  58  80 SW12      30.13R
HILL CITY      CLOUDY    74  69  85 E3        30.06F
NORTON         PTCLDY    73  64  73 NE7       30.07R
SMITH CENTER   PTCLDY    72  66  83 NE7       30.04F
BELOIT         MOCLDY    73  68  83 CALM      30.01R
HAYS           CLEAR     73  64  73 NE6       30.04S
RUSSELL        CLEAR     73  69  87 NE6       30.01S
CONCORDIA      MOCLDY    74  68  81 CALM      30.01F
SALINA         PTCLDY    81  69  67 CALM      29.99S
TOPEKA         CLEAR     74  71  91 CALM      29.96F



USA.gov is the U.S. government's official web portal to all federal, state and local government web resources and services.